Погода в Старобельске

Украина / Луганская область     49°16′52″N   38°54′20″E
темп.,
°C
ветер,
м/с
пор.,
м/с
влажн.,
%
обл.,
%
осадки,
мм/ч
давл.,
гПа
погр.,
м
16 сентября, чт
чт1600:00+12с22414 0.0 101619
03:00+10ссз2246100 0.0 101613
06:00+10ссз2248100 0.0 101715
09:00+15ссз3437100 0.0 1017470
12:00+19ссз44314 0.0 10171679
15:00+21ссз44275 0.0 10161933
18:00+18с45344 0.0 1017138
21:00+13ссв33420 0.0 101829
17 сентября, пт
пт1700:00+11в22480 0.0 101917
03:00+9в225114 0.0 101911
06:00+8в11555 0.0 101910
09:00+16ююв1137100 0.0 1018362
12:00+20юз23286 0.0 10171679
15:00+22зюз332482 0.0 10151977
18:00+19з223026 0.0 101518
21:00+17ссв113295 0.0 101511
18 сентября, сб
сб1800:00+15юв113686 0.0 101511
03:00+16в113596 0.0 101511
06:00+15всв3537100 0.0 1015153
09:00+15в6103681 0.0 1016447
12:00+20в772970 0.0 1015979
15:00+23в572880 0.0 10142096
18:00+19всв8123898 0.0 1014521
21:00+15в71546100 0.0 1015449
19 сентября, вс
вс1900:00+13вюв61449100 0.0 1014408
03:00+14вюв51150100 0.0 1014322
06:00+14вюв51049100 0.1 1014369
09:00+13всв5956100 0.5 1014323
12:00+19юв61055100 0.0 1012959
15:00+19ююв61058100 0.1 1011609
18:00+16ю5885100 1.4 1011408
21:00+15юв3894100 8.7 1010368
20 сентября, пн
пн2000:00+15ююв61192100 3.9 1009486
03:00+15ююв4109458 4.3 1009376
06:00+14ююв599763 0.2 1008268
09:00+17ю358364 0.9 1008555
12:00+21юз565375 1.0 10081138
15:00+22зюз684787 1.2 10082159
18:00+20з35496 0.0 1008107
21:00+17ююв2254100 0.0 100919